Powrót do katalogu

RADUGA 25

AktywnyMilitariaGEO
NORAD 20499·PAYLOAD·🇷🇺 Russia

Wystrzelony Feb 15, 1990 z Baikonur Cosmodrome

Loading…

TLE

ŚwieżeSource: Space-Track

Epoka: Sep 14, 2026, 05:37 UTC

1 20499U 90016A   26257.23465671 -.00000071  00000-0  00000-0 0  9995
2 20499  12.2309 334.0956 0006326 221.6508 132.2718  1.00164752133797

Śledź RADUGA 25 w czasie rzeczywistym z AllMySat

Download on the App Store